Moab, UT

11:37 AM MST on November 21, 2019 (GMT -0700)
Canyonlands

Weather History for KCNY - May, 2019

Change the Weather History Date:

Tuesday, May 28, 2019

  Actual Average Record
Temperature  
Mean Temperature 56 °F 67 °F  
Max Temperature 66 °F 83 °F 101 °F (1951)
Min Temperature 45 °F 50 °F 34 °F (1955)
Degree Days  
Heating Degree Days 9 2  
Month to date heating degree days 228 129  
Since 1 July heating degree days 5798 5554  
Cooling Degree Days 0 4  
Month to date cooling degree days 12 47  
Year to date cooling degree days 14 50  
Growing Degree Days 4 (Base 50)    
Moisture  
Dew Point 42 °F    
Average Humidity 67    
Maximum Humidity 100    
Minimum Humidity 34    
Precipitation  
Precipitation 0.04 in 0.02 in 0.59 in (1967)
Month to date precipitation 0.99 0.53  
Year to date precipitation 5.98 3.15  
Sea Level Pressure  
Sea Level Pressure 29.82 in    
Wind  
Wind Speed 5 mph (WSW)    
Max Wind Speed 23 mph    
Max Gust Speed 31 mph    
Visibility 10 miles    
Events Rain    
T = Trace of Precipitation, MM = Missing Value Source: NWS Daily Summary

Daily Weather History Graph

Daily Weather History Graph

Search for Another Location

Airport or City:

Astronomy

May. 28, 2019 Rise Set
Actual Time 5:57 AM MDT 8:35 PM MDT
Civil Twilight 5:26 AM MDT 9:06 PM MDT
Nautical Twilight 4:48 AM MDT 9:44 PM MDT
Astronomical Twilight 4:05 AM MDT 10:28 PM MDT
Moon 3:06 AM MDT (5/28) 2:52 PM MDT (5/28)
Length of Visible Light 15h 39m
Length of Day
14h 37m
Waning Crescent, 31% of the Moon is Illuminated
May 28
Waning Crescent
Jun 3
New
Jun 10
First Quarter
Jun 17
Full
Jun 25
Last Quarter

Hourly Weather History & Observations

Time (MDT) Temp. Windchill Dew Point Humidity Pressure Visibility Wind Dir Wind Speed Gust Speed Precip Events Conditions
12:53 AM 46.0 °F 43.1 °F 43.0 °F 89% 29.74 in 10.0 mi East 5.8 mph - 0.00 in Rain Light Rain
1:53 AM 45.0 °F 40.6 °F 42.1 °F 90% 29.76 in 10.0 mi SE 8.1 mph - 0.01 in Rain Light Rain
2:02 AM 45.0 °F 41.2 °F 42.1 °F 90% 29.84 in 8.0 mi SE 6.9 mph - 0.00 in Rain Light Rain
2:53 AM 45.0 °F - 42.1 °F 90% 29.79 in 10.0 mi Calm Calm - 0.00 in   Overcast
3:09 AM 45.0 °F - 42.1 °F 90% 29.84 in 10.0 mi Calm Calm - N/A   Overcast
3:53 AM 46.0 °F 43.9 °F 43.0 °F 89% 29.78 in 10.0 mi SW 4.6 mph - 0.00 in Rain Light Rain
4:09 AM 45.0 °F 41.8 °F 42.1 °F 90% 29.84 in 10.0 mi SSW 5.8 mph - 0.00 in   Overcast
4:53 AM 45.0 °F - 43.0 °F 93% 29.79 in 10.0 mi Calm Calm - 0.00 in   Overcast
5:53 AM 45.0 °F 43.5 °F 44.1 °F 97% 29.80 in 10.0 mi North 3.5 mph - 0.01 in   Overcast
6:03 AM 45.0 °F 42.6 °F 44.1 °F 97% 29.86 in 10.0 mi NNE 4.6 mph - N/A   Overcast
6:53 AM 46.0 °F 44.8 °F 43.0 °F 89% 29.83 in 10.0 mi ENE 3.5 mph - 0.00 in Rain Light Rain
7:53 AM 46.9 °F - 43.0 °F 86% 29.82 in 10.0 mi ESE 4.6 mph - 0.02 in   Overcast
8:53 AM 48.0 °F - 42.1 °F 80% 29.83 in 10.0 mi SE 3.5 mph - N/A   Overcast
9:53 AM 50.0 °F - 42.1 °F 74% 29.84 in 10.0 mi Calm Calm - N/A   Overcast
10:53 AM 54.0 °F - 43.0 °F 66% 29.84 in 10.0 mi Calm Calm - N/A   Overcast
11:53 AM 54.0 °F - 42.1 °F 64% 29.84 in 10.0 mi WSW 5.8 mph - N/A   Overcast
12:53 PM 57.0 °F - 42.1 °F 57% 29.83 in 10.0 mi Variable 3.5 mph - N/A   Mostly Cloudy
1:53 PM 59.0 °F - 39.0 °F 48% 29.81 in 10.0 mi West 5.8 mph - N/A   Mostly Cloudy
2:53 PM 62.1 °F - 39.0 °F 43% 29.79 in 10.0 mi West 9.2 mph - N/A   Partly Cloudy
3:53 PM 62.1 °F - 36.0 °F 38% 29.78 in 10.0 mi WSW 5.8 mph - N/A   Mostly Cloudy
4:53 PM 64.0 °F - 36.0 °F 35% 29.77 in 10.0 mi North - - N/A   Clear
6:53 PM 57.9 °F - 42.1 °F 56% 29.81 in 10.0 mi NW 19.6 mph - N/A   Overcast
7:53 PM 55.9 °F - 42.1 °F 60% 29.83 in 10.0 mi WNW 11.5 mph - N/A   Clear
8:53 PM 55.0 °F - 42.1 °F 62% 29.83 in 10.0 mi WNW 5.8 mph - N/A   Partly Cloudy
9:53 PM 53.1 °F - 42.1 °F 66% 29.86 in 10.0 mi West 4.6 mph - N/A   Scattered Clouds
10:53 PM 52.0 °F - 43.0 °F 71% 29.87 in 10.0 mi Calm Calm - N/A   Clear
11:53 PM 52.0 °F - 43.0 °F 71% 29.87 in 10.0 mi Calm Calm - N/A   Mostly Cloudy